Flag for India Weather past 2 weeks in Thiruvananthapuram, Kerala, India

Now
79 °F

Passing clouds.


Feels Like: 82 °F
Forecast: 78 / 85 °F
Wind: No wind

Location: Thiruvananthapuram

Current Time: Oct 2, 2014 at 6:14:34 AM

Latest Report: Oct 2, 2014 at 5:40 AM


Visibility: 2 mi

Pressure: 29.80 "Hg

Humidity: 84%

Dew point: 73 °F

Location of ThiruvananthapuramLocation

Historic Weather in Thiruvananthapuram — Graph

°F

Thiruvananthapuram temperature yesterday

Maximum temperature yesterday: 88 °F (at 10:40 AM)
Minimum temperature yesterday: 77 °F (at 5:10 AM)
Average temperature yesterday: 82 °F

Past Weeks' High & Low Weather Summary

 TemperatureHumidityPressure
High88 °F (Sep 17, 12:10 PM)94% (Sep 26, 7:10 PM)29.89 "Hg (Sep 26, 7:10 PM)
Low75 °F (Sep 27, 12:10 AM)62% (Sep 21, 11:10 AM)29.68 "Hg (Sep 17, 2:10 PM)
Average82 °F81%29.79 "Hg
* Reported Sep 17 4:40 AM — Oct 2 4:40 AM, Thiruvananthapuram, Weather by CustomWeather, © 2014

Note: Actual official high and low records may vary slightly from our data, if they occured in-between our weather recording intervals... More about our weather records

Advertising

Thiruvananthapuram weather history for previous 24 hours

 ConditionsComfort  
Time TempWeatherWind HumidityBarometerVisibility
4:40 AM
Oct 2
79 °FPassing clouds.No wind84%29.80 "Hg2 mi
3:40 AM79 °FPassing clouds.No wind84%29.80 "Hg2 mi
2:40 AM79 °FPassing clouds.No wind84%29.80 "Hg2 mi
1:40 AM79 °FPassing clouds.No wind84%29.83 "Hg2 mi
12:40 AM81 °FPartly cloudy.No wind79%29.83 "Hg2 mi
11:40 PM
Oct 1
81 °FPartly cloudy.3 mph84%29.86 "Hg2 mi
10:40 PM81 °FPartly cloudy.3 mph84%29.89 "Hg2 mi
10:10 PM81 °FPartly cloudy.3 mph84%29.89 "Hg2 mi
9:40 PM81 °FPartly cloudy.No wind84%29.89 "Hg2 mi
9:10 PM81 °FPartly cloudy.No wind84%29.86 "Hg2 mi
8:10 PM81 °FThunderstorms. Partly cloudy.3 mph84%29.86 "Hg2 mi
7:40 PM82 °FThunderstorms. Partly cloudy.3 mph79%29.86 "Hg2 mi
6:40 PM82 °FBroken clouds.3 mph79%29.80 "Hg2 mi
6:10 PM82 °FThunderstorms. Broken clouds.5 mph79%29.80 "Hg2 mi
5:40 PM84 °FThunderstorms. More clouds than sun.5 mph74%29.77 "Hg3 mi
3:40 PM86 °FThunderstorms. Scattered clouds.6 mph75%29.74 "Hg4 mi
3:10 PM88 °FThunderstorms. Scattered clouds.7 mph70%29.74 "Hg4 mi
2:40 PM88 °FThunderstorms. Passing clouds.5 mph70%29.74 "Hg4 mi
2:10 PM88 °FPassing clouds.5 mph70%29.74 "Hg4 mi
1:40 PM88 °FPassing clouds.5 mph70%29.77 "Hg4 mi
12:40 PM88 °FPassing clouds.6 mph70%29.80 "Hg4 mi
11:40 AM88 °FPassing clouds.5 mph66%29.83 "Hg4 mi
11:10 AM88 °FPassing clouds.5 mph66%29.86 "Hg4 mi
10:40 AM88 °FPassing clouds.5 mph66%29.86 "Hg4 mi
10:10 AM86 °FPassing clouds.3 mph70%29.86 "Hg4 mi
9:40 AM86 °FHaze.5 mph70%29.86 "Hg3 mi
9:10 AM84 °FHaze.3 mph74%29.86 "Hg3 mi
8:10 AM82 °FScattered clouds.No wind74%29.86 "Hg2 mi
7:40 AM81 °FScattered clouds.No wind79%29.86 "Hg2 mi
7:10 AM79 °FHaze.No wind84%29.83 "Hg2 mi
6:40 AM79 °FHaze.No wind79%29.83 "Hg2 mi
6:10 AM79 °FHaze.No wind79%29.83 "Hg2 mi
Weather by CustomWeather, © 2014

See weather overviewHow to use our weather pages